Tracking 25648 objects as of 17-May-2022
HD Live streaming from Space Station
objects crossing your sky now

COSMOS 1541

Track COSMOS 1541 now!
COSMOS 1541 is classified as:


NORAD ID: 14790
Int'l Code: 1984-024A
Perigee: 6,643.7 km
Apogee: 33,690.5 km
Inclination: 71.8 °
Period: 717.1 minutes
Semi major axis: 26538 km
RCS: 7.9433 m2 (large)
Launch date: March 6, 1984
Source: Commonwealth of Independent States (former USSR) (CIS)
Launch site: PLESETSK MISSILE AND SPACE COMPLEX (PKMTR)
aabbcc
Your satellite tracking list
Your tracking list is empty




NASA's NSSDC Master Catalog

Two Line Element Set (TLE):
1 14790U 84024A   22136.18741924 -.00000188  00000-0  00000-0 0  9997
2 14790  71.7627 207.9541 5095840  23.6761   5.0589  2.00815538252005
Source of the keplerian elements: AFSPC